PTVZE GCTS-LPPS

Flight info

Callsign PTVZE
Flight time 0h 46m
Altitude 43000
Route TFN DCT BIMBO DCT KEKOS
Aircraft C750/M-SBDE3FGHRWXY/S

Departure

Time 2026-04-26 18:08
Airport Tenerife Sur Airport (GCTS)

Arrival

Time 2026-04-26 18:54
Airport Porto Santo Airport (LPPS)
Time Latitude Longitude Altitude Speed Heading
2026-04-26 17:55 28.04798 -16.57459 222 ft 0 kts 339°
2026-04-26 18:04 28.04799 -16.57464 222 ft 3 kts 296°
2026-04-26 18:04 28.04774 -16.57460 222 ft 18 kts 166°
2026-04-26 18:04 28.04600 -16.57482 219 ft 26 kts 204°
2026-04-26 18:05 28.04506 -16.57612 219 ft 6 kts 252°
2026-04-26 18:05 28.04495 -16.57653 219 ft 5 kts 250°
2026-04-26 18:05 28.04465 -16.57719 219 ft 15 kts 248°
2026-04-26 18:05 28.04416 -16.57866 219 ft 25 kts 248°
2026-04-26 18:06 28.04338 -16.58090 219 ft 32 kts 249°
2026-04-26 18:06 28.04308 -16.58126 219 ft 5 kts 157°
2026-04-26 18:06 28.04289 -16.58046 212 ft 8 kts 84°
2026-04-26 18:06 28.04298 -16.57941 200 ft 18 kts 85°
2026-04-26 18:07 28.04306 -16.57775 193 ft 23 kts 87°
2026-04-26 18:07 28.04321 -16.57625 194 ft 38 kts 76°
2026-04-26 18:07 28.04610 -16.56779 254 ft 132 kts 70°
2026-04-26 18:07 28.04727 -16.56436 412 ft 138 kts 71°
2026-04-26 18:08 28.05303 -16.54782 1664 ft 144 kts 66°
2026-04-26 18:08 28.05561 -16.54053 2026 ft 158 kts 67°
2026-04-26 18:08 28.05975 -16.52865 2716 ft 165 kts 66°
2026-04-26 18:08 28.06416 -16.51601 3345 ft 185 kts 66°
2026-04-26 18:09 28.06922 -16.50150 3935 ft 211 kts 66°
2026-04-26 18:09 28.07578 -16.48566 4494 ft 236 kts 52°
2026-04-26 18:09 28.08990 -16.47493 5016 ft 256 kts 18°
2026-04-26 18:09 28.10704 -16.46966 6123 ft 256 kts 15°
2026-04-26 18:10 28.12422 -16.46298 7029 ft 263 kts 21°
2026-04-26 18:10 28.14115 -16.45452 8040 ft 270 kts 23°
2026-04-26 18:10 28.15873 -16.44589 8959 ft 281 kts 21°
2026-04-26 18:10 28.17710 -16.43746 9851 ft 290 kts 21°
2026-04-26 18:11 28.19624 -16.42870 10454 ft 306 kts 21°
2026-04-26 18:11 28.21681 -16.41905 10658 ft 334 kts 21°
2026-04-26 18:11 28.23916 -16.40851 10838 ft 358 kts 21°
2026-04-26 18:11 28.26210 -16.39776 11739 ft 355 kts 22°
2026-04-26 18:12 28.28512 -16.38700 12473 ft 361 kts 22°
2026-04-26 18:12 28.30848 -16.37607 13194 ft 365 kts 22°
2026-04-26 18:12 28.33219 -16.36494 13910 ft 370 kts 22°
2026-04-26 18:12 28.35612 -16.35371 14550 ft 374 kts 22°
2026-04-26 18:13 28.38021 -16.34242 15204 ft 377 kts 22°
2026-04-26 18:13 28.40466 -16.33094 15824 ft 382 kts 22°
2026-04-26 18:13 28.42932 -16.31936 16517 ft 385 kts 22°
2026-04-26 18:13 28.44579 -16.31161 16958 ft 388 kts 22°
2026-04-26 18:14 28.47908 -16.29597 17884 ft 393 kts 22°
2026-04-26 18:14 28.50448 -16.28402 18544 ft 398 kts 22°
2026-04-26 18:14 28.53056 -16.27211 19176 ft 401 kts 19°
2026-04-26 18:14 28.55776 -16.26670 19693 ft 405 kts
2026-04-26 18:15 28.58598 -16.26486 20394 ft 407 kts
2026-04-26 18:15 28.61455 -16.26286 21026 ft 413 kts
2026-04-26 18:15 28.64332 -16.26034 21654 ft 418 kts
2026-04-26 18:15 28.67251 -16.25783 22324 ft 422 kts
2026-04-26 18:16 28.70197 -16.25559 22895 ft 428 kts
2026-04-26 18:16 28.76188 -16.25089 24048 ft 437 kts
2026-04-26 18:16 28.79223 -16.24839 24700 ft 437 kts
2026-04-26 18:17 28.82275 -16.24597 25209 ft 441 kts
2026-04-26 18:17 28.85350 -16.24356 25757 ft 444 kts
2026-04-26 18:17 28.88435 -16.24109 26299 ft 447 kts
2026-04-26 18:17 28.91559 -16.23857 26832 ft 450 kts
2026-04-26 18:18 28.94686 -16.23606 27396 ft 453 kts
2026-04-26 18:18 28.97853 -16.23354 27888 ft 457 kts
2026-04-26 18:18 29.01024 -16.23100 28484 ft 459 kts
2026-04-26 18:18 29.04224 -16.22843 28968 ft 463 kts
2026-04-26 18:19 29.07447 -16.22583 29547 ft 465 kts
2026-04-26 18:19 29.10684 -16.22324 30017 ft 469 kts
2026-04-26 18:19 29.13947 -16.22062 30474 ft 472 kts
2026-04-26 18:19 29.17243 -16.21796 30795 ft 477 kts
2026-04-26 18:20 29.20566 -16.21529 31309 ft 478 kts
2026-04-26 18:20 29.23888 -16.21261 31818 ft 479 kts
2026-04-26 18:20 29.27204 -16.20995 32415 ft 478 kts
2026-04-26 18:20 29.29404 -16.20818 32717 ft 480 kts
2026-04-26 18:21 29.33865 -16.20457 33529 ft 478 kts
2026-04-26 18:21 29.37182 -16.20189 34054 ft 479 kts
2026-04-26 18:21 29.40511 -16.19921 34629 ft 477 kts
2026-04-26 18:21 29.43817 -16.19654 35157 ft 477 kts
2026-04-26 18:22 29.47119 -16.19386 35752 ft 475 kts
2026-04-26 18:22 29.50372 -16.19122 36288 ft 474 kts
2026-04-26 18:22 29.53686 -16.18854 36848 ft 463 kts
2026-04-26 18:22 29.56817 -16.18598 37048 ft 459 kts
2026-04-26 18:23 29.63241 -16.18082 37066 ft 464 kts
2026-04-26 18:23 29.69693 -16.17554 37065 ft 464 kts
2026-04-26 18:24 29.76141 -16.17032 37061 ft 464 kts
2026-04-26 18:24 29.82586 -16.16506 37064 ft 464 kts
2026-04-26 18:25 29.89032 -16.15981 37060 ft 464 kts
2026-04-26 18:25 29.95478 -16.15454 37076 ft 464 kts
2026-04-26 18:26 30.01926 -16.14927 37083 ft 464 kts
2026-04-26 18:26 30.08369 -16.14400 37078 ft 464 kts
2026-04-26 18:27 30.14818 -16.13871 37073 ft 464 kts
2026-04-26 18:27 30.21262 -16.13343 37076 ft 464 kts
2026-04-26 18:28 30.27710 -16.12813 37075 ft 464 kts
2026-04-26 18:28 30.34152 -16.12282 37074 ft 464 kts
2026-04-26 18:29 30.40610 -16.11751 37076 ft 465 kts
2026-04-26 18:29 30.47056 -16.11218 37077 ft 465 kts
2026-04-26 18:30 30.53501 -16.10686 37085 ft 465 kts
2026-04-26 18:30 30.59908 -16.10157 37085 ft 465 kts
2026-04-26 18:31 30.66362 -16.09621 37079 ft 465 kts
2026-04-26 18:31 30.72846 -16.09084 37078 ft 465 kts
2026-04-26 18:32 30.79255 -16.08551 37084 ft 465 kts
2026-04-26 18:32 30.85704 -16.08015 37084 ft 465 kts
2026-04-26 18:33 30.92141 -16.07478 37088 ft 464 kts
2026-04-26 18:33 30.98584 -16.06942 37090 ft 466 kts
2026-04-26 18:34 31.05043 -16.06401 37082 ft 465 kts
2026-04-26 18:34 31.11489 -16.05862 37079 ft 464 kts
2026-04-26 18:35 31.17919 -16.05325 37074 ft 464 kts
2026-04-26 18:35 31.24377 -16.05519 36657 ft 473 kts 348°
2026-04-26 18:36 31.27607 -16.06244 36257 ft 472 kts 346°
2026-04-26 18:36 31.30799 -16.07068 35841 ft 469 kts 346°
2026-04-26 18:36 31.34012 -16.07735 35423 ft 470 kts 348°
2026-04-26 18:36 31.37247 -16.08306 35029 ft 468 kts 350°
2026-04-26 18:37 31.40471 -16.08834 34646 ft 469 kts 349°
2026-04-26 18:37 31.43704 -16.09377 34276 ft 470 kts 349°
2026-04-26 18:37 31.46932 -16.09948 33887 ft 469 kts 349°
2026-04-26 18:37 31.50178 -16.10512 33472 ft 473 kts 350°
2026-04-26 18:38 31.53425 -16.11063 33078 ft 472 kts 350°
2026-04-26 18:38 31.56680 -16.11634 32692 ft 474 kts 349°
2026-04-26 18:38 31.59946 -16.12208 32326 ft 474 kts 350°
2026-04-26 18:38 31.63211 -16.12768 31965 ft 474 kts 349°
2026-04-26 18:39 31.66484 -16.13327 31616 ft 477 kts 349°
2026-04-26 18:39 31.69771 -16.13897 31277 ft 476 kts 349°
2026-04-26 18:39 31.73071 -16.14474 30944 ft 481 kts 349°
2026-04-26 18:39 31.76383 -16.15048 30628 ft 480 kts 349°
2026-04-26 18:40 31.79677 -16.15615 30319 ft 478 kts 349°
2026-04-26 18:40 31.82966 -16.16185 29985 ft 476 kts 350°
2026-04-26 18:40 31.86226 -16.16754 29623 ft 471 kts 349°
2026-04-26 18:40 31.89468 -16.17318 29266 ft 470 kts 350°
2026-04-26 18:41 31.92683 -16.17877 28917 ft 465 kts 350°
2026-04-26 18:41 31.95884 -16.18433 28573 ft 464 kts 350°
2026-04-26 18:41 31.99067 -16.18987 28240 ft 461 kts 351°
2026-04-26 18:41 32.02235 -16.19540 27911 ft 458 kts 350°
2026-04-26 18:42 32.05384 -16.20089 27587 ft 457 kts 350°
2026-04-26 18:42 32.08509 -16.20634 27273 ft 452 kts 351°
2026-04-26 18:42 32.11604 -16.21175 26970 ft 451 kts 351°
2026-04-26 18:42 32.14714 -16.21719 26664 ft 448 kts 351°
2026-04-26 18:43 32.17789 -16.22257 26367 ft 445 kts 351°
2026-04-26 18:43 32.20814 -16.22786 26076 ft 444 kts 351°
2026-04-26 18:43 32.23853 -16.23318 25786 ft 441 kts 351°
2026-04-26 18:43 32.26880 -16.23848 25496 ft 439 kts 351°
2026-04-26 18:44 32.29894 -16.24377 25217 ft 437 kts 351°
2026-04-26 18:44 32.32894 -16.24903 24944 ft 435 kts 351°
2026-04-26 18:44 32.35882 -16.25428 24672 ft 433 kts 351°
2026-04-26 18:44 32.38853 -16.25950 24404 ft 431 kts 351°
2026-04-26 18:45 32.41810 -16.26470 24140 ft 429 kts 351°
2026-04-26 18:45 32.44759 -16.26989 23879 ft 427 kts 351°
2026-04-26 18:45 32.47688 -16.27505 23608 ft 425 kts 351°
2026-04-26 18:45 32.50581 -16.28014 22981 ft 414 kts 351°
2026-04-26 18:46 32.53419 -16.28515 21521 ft 411 kts 351°
2026-04-26 18:46 32.56220 -16.29010 20394 ft 402 kts 351°
2026-04-26 18:46 32.58953 -16.29492 19297 ft 392 kts 351°
2026-04-26 18:46 32.61626 -16.29964 18133 ft 385 kts 352°
2026-04-26 18:47 32.64256 -16.30429 16883 ft 379 kts 352°
2026-04-26 18:47 32.66830 -16.30884 15766 ft 370 kts 352°
2026-04-26 18:47 32.69361 -16.31332 14591 ft 366 kts 352°
2026-04-26 18:47 32.71858 -16.31774 13485 ft 359 kts 353°
2026-04-26 18:48 32.74299 -16.32206 12346 ft 351 kts 353°
2026-04-26 18:48 32.76668 -16.32627 11781 ft 333 kts 353°
2026-04-26 18:48 32.78870 -16.33020 11599 ft 306 kts 353°
2026-04-26 18:48 32.80895 -16.33379 11318 ft 286 kts 353°
2026-04-26 18:49 32.82865 -16.33725 10574 ft 287 kts 353°
2026-04-26 18:49 32.84836 -16.34070 9909 ft 284 kts 354°
2026-04-26 18:49 32.86789 -16.34198 9200 ft 279 kts
2026-04-26 18:49 32.88716 -16.34255 8498 ft 276 kts
2026-04-26 18:50 32.89985 -16.34304 8052 ft 275 kts 360°
2026-04-26 18:50 32.92523 -16.34414 7211 ft 271 kts
2026-04-26 18:50 32.93764 -16.34464 6838 ft 266 kts
2026-04-26 18:50 32.95915 -16.34557 5037 ft 203 kts
2026-04-26 18:51 32.96821 -16.34591 3924 ft 191 kts
2026-04-26 18:51 32.98068 -16.34636 2722 ft 167 kts
2026-04-26 18:51 32.99214 -16.34681 2024 ft 158 kts 360°
2026-04-26 18:51 33.00211 -16.34767 1696 ft 131 kts 357°
2026-04-26 18:52 33.01041 -16.34802 1307 ft 113 kts
2026-04-26 18:52 33.01820 -16.34837 986 ft 108 kts 356°
2026-04-26 18:52 33.02550 -16.34846 830 ft 111 kts
2026-04-26 18:52 33.03283 -16.34861 722 ft 99 kts 358°
2026-04-26 18:53 33.03970 -16.34873 568 ft 99 kts
2026-04-26 18:53 33.04694 -16.34902 486 ft 108 kts 358°
2026-04-26 18:53 33.05464 -16.34919 353 ft 115 kts
2026-04-26 18:53 33.06231 -16.34951 260 ft 110 kts 360°
2026-04-26 18:54 33.06880 -16.34978 248 ft 59 kts 358°
2026-04-26 18:54 33.06970 -16.34978 248 ft 0 kts 59°
2026-04-26 18:54 33.06968 -16.34919 247 ft 14 kts 133°
2026-04-26 18:54 33.06964 -16.34847 245 ft 9 kts 87°
2026-04-26 18:55 33.06966 -16.34773 245 ft 9 kts 89°
2026-04-26 18:55 33.06969 -16.34732 245 ft 8 kts 87°
2026-04-26 18:55 33.06972 -16.34636 245 ft 6 kts 87°
2026-04-26 18:55 33.06984 -16.34620 245 ft 3 kts 18°
2026-04-26 18:56 33.06997 -16.34630 245 ft 1 kts 299°
2026-04-26 18:56 33.06999 -16.34633 245 ft 0 kts 304°